This is the latest recevied weather packets stored in our database for station/object VK2BLR. If no packets are shown the sender has not sent any weather packets the latest 10 day(s).
| Time | Temp. | Humidity | Pressure | Rain* | Wind** | Luminosity | Snow |
|---|---|---|---|---|---|---|---|
| 1788087992 | 11.67° C | 73% | 1028.3 hPa | 0 mm | - | - | - |
| 1788087092 | 11.67° C | 72% | 1028.2 hPa | 0 mm | - | - | - |
| 1788086191 | 12.22° C | 72% | 1028.2 hPa | 0 mm | - | - | - |
| 1788085291 | 12.78° C | 69% | 1028.1 hPa | 0 mm | - | - | - |
| 1788084390 | 12.78° C | 68% | 1028.1 hPa | 0 mm | - | - | - |
| 1788083492 | 13.33° C | 66% | 1028 hPa | 0 mm | - | - | - |
| 1788082591 | 13.89° C | 65% | 1027.9 hPa | 0 mm | - | - | - |
| 1788081690 | 13.89° C | 64% | 1027.6 hPa | 0 mm | - | - | - |
| 1788080791 | 14.44° C | 63% | 1027.7 hPa | 0 mm | - | - | - |
| 1788079891 | 15° C | 61% | 1027.6 hPa | 0 mm | - | - | - |
| 1788078992 | 15.56° C | 60% | 1027.5 hPa | 0 mm | - | - | - |
| 1788078090 | 16.11° C | 58% | 1027.4 hPa | 0 mm | - | - | - |
| 1788077191 | 17.22° C | 56% | 1027.3 hPa | 0 mm | - | - | - |
| 1788076291 | 17.78° C | 50% | 1027.2 hPa | 0 mm | - | - | - |
| 1788075392 | 18.33° C | 49% | 1027.1 hPa | 0 mm | - | - | - |
| 1788074491 | 18.33° C | 46% | 1027.1 hPa | 0 mm | - | - | - |
| 1788073590 | 18.89° C | 44% | 1027.1 hPa | 0 mm | - | - | - |
| 1788072691 | 19.44° C | 43% | 1027.1 hPa | 0 mm | - | - | - |
| 1788071791 | 19.44° C | 42% | 1027.2 hPa | 0 mm | - | - | - |
| 1788070890 | 20° C | 41% | 1027.1 hPa | 0 mm | - | - | - |
| 1788069991 | 20° C | 41% | 1027.2 hPa | 0 mm | - | - | - |
| 1788069091 | 20.56° C | 40% | 1027.2 hPa | 0 mm | - | - | - |
| 1788068191 | 20.56° C | 40% | 1027.4 hPa | 0 mm | - | - | - |
| 1788067290 | 21.11° C | 41% | 1027.3 hPa | 0 mm | - | - | - |
| 1788066391 | 21.11° C | 41% | 1027.4 hPa | 0 mm | - | - | - |
* Rain latest hour (hover to see other rain measurements)
** Current wind speed in m/s (hover to see current wind gust speed)